Powrót do katalogu

STARLINK-35083

AktywnyŁącznośćSSO
NORAD 65390·PAYLOAD·🇺🇸 United States

Wystrzelony Aug 30, 2025 z Vandenberg Space Force Base

Loading…

Następne Przeloty (najbliższe 24 godziny)

TLE

ŚwieżeSource: CelesTrak SupGP

Epoka: Sep 15, 2026, 02:35 UTC

1 65390C 25191M   26258.10812500  .00041256  00000+0  12803-2 0  2582
2 65390  97.2847 124.2086 0001678  98.8378 209.9763 15.33427289    11

Śledź STARLINK-35083 w czasie rzeczywistym z AllMySat

Download on the App Store